Weather History for Buffalo, NY

Change the Weather History Date:

Friday, May 24, 2013

  Actual Average Record
Temperature  
Mean Temperature 45 °F 60 °F  
Max Temperature 51 °F 69 °F 88 °F (1922)
Min Temperature 39 °F 50 °F 31 °F (1925)
Degree Days  
Heating Degree Days 20 7  
Month to date heating degree days 131 234  
Since 1 July heating degree days 5989 6515  
Cooling Degree Days 0 1  
Month to date cooling degree days 48 12  
Year to date cooling degree days 48 15  
Moisture  
Dew Point 35 °F    
Average Humidity 73    
Maximum Humidity 93    
Minimum Humidity 52    
Precipitation  
Precipitation 0.05 in 0.12 in 1.09 in (1964)
Month to date precipitation 1.61 2.62  
Year to date precipitation 12.14 14.17  
Snow  
Snow 0.00 in 0.00 in T in (1925)
Month to date snowfall T 0.3  
Since 1 July snowfall 58.8 94.7  
Snow Depth 0.00 in    
Sea Level Pressure  
Sea Level Pressure 30.14 in    
Wind  
Wind Speed 13 mph (NNW)    
Max Wind Speed 20 mph    
Max Gust Speed 26 mph    
Visibility 8 miles    
Events Rain    
T = Trace of Precipitation, MM = Missing Value Source: NWS Daily Summary

Daily Weather History Graph

Daily Weather History Graph

Search for Another Location

Airport:

Trip Planner

Search our weather history database for the weather conditions in past years. The results will help you decide how hot, cold, wet, or windy it might be!

Date:

Astronomy

May. 24, 2013 Rise Set
Actual Time 5:43 AM EDT 8:40 PM EDT
Civil Twilight 5:10 AM EDT 9:14 PM EDT
Nautical Twilight 4:27 AM EDT 9:57 PM EDT
Astronomical Twilight 3:37 AM EDT 10:47 PM EDT
Moon 8:19 PM EDT (5/24) 5:15 AM EDT (5/24)
Length of Visible Light 16h 04m
Length of Day
14h 56m
Full, 100% of the Moon is Illuminated
May 24
Full
May 25
Full
May 31
Last Quarter
Jun 8
New
Jun 16
First Quarter

Hourly Weather History & Observations

Time (EDT) Temp. Windchill Dew Point Humidity Pressure Visibility Wind Dir Wind Speed Gust Speed Precip Events Conditions
12:54 AM 42.1 °F 34.5 °F 39.9 °F 92% 29.95 in 4.0 mi North 15.0 mph 25.3 mph 0.01 in Rain Light Rain
1:54 AM 41.0 °F 33.5 °F 39.0 °F 93% 29.97 in 6.0 mi North 13.8 mph 21.9 mph 0.02 in Rain Light Rain
2:54 AM 39.9 °F 31.8 °F 37.9 °F 93% 29.98 in 6.0 mi North 15.0 mph 23.0 mph 0.01 in Rain Light Rain
3:54 AM 39.0 °F 30.6 °F 37.0 °F 93% 30.01 in 8.0 mi North 15.0 mph 20.7 mph 0.00 in Rain Light Rain
4:54 AM 39.0 °F 31.0 °F 37.0 °F 93% 30.03 in 5.0 mi NNW 13.8 mph 20.7 mph 0.01 in Rain Light Rain
5:54 AM 39.9 °F 33.4 °F 37.9 °F 93% 30.05 in 9.0 mi NNW 10.4 mph - 0.01 in Rain Light Rain
6:54 AM 39.0 °F 30.6 °F 37.0 °F 93% 30.08 in 7.0 mi NNW 15.0 mph 20.7 mph 0.00 in Rain Light Rain
7:54 AM 39.0 °F 29.9 °F 37.0 °F 93% 30.11 in 3.0 mi NNW 17.3 mph 24.2 mph 0.00 in   Light Drizzle
7:57 AM 39.2 °F 30.5 °F 35.6 °F 87% 30.09 in 4.0 mi NNW 16.1 mph 24.2 mph 0.00 in   Light Drizzle
8:52 AM 39.2 °F 30.8 °F 35.6 °F 87% 30.12 in 10.0 mi NNW 15.0 mph - 0.00 in   Overcast
8:54 AM 39.0 °F 31.4 °F 35.1 °F 86% 30.14 in 10.0 mi North 12.7 mph - 0.00 in   Overcast
9:02 AM 39.2 °F 30.5 °F 35.6 °F 87% 30.12 in 10.0 mi NNW 16.1 mph 21.9 mph N/A   Overcast
9:54 AM 39.9 °F 31.4 °F 34.0 °F 79% 30.16 in 10.0 mi NW 16.1 mph 23.0 mph 0.00 in Rain Light Rain
10:54 AM 41.0 °F 34.3 °F 35.1 °F 79% 30.17 in 10.0 mi NNW 11.5 mph - 0.00 in   Overcast
11:54 AM 42.1 °F 34.9 °F 34.0 °F 73% 30.19 in 10.0 mi NNW 13.8 mph 23.0 mph N/A   Overcast
12:54 PM 43.0 °F 35.7 °F 34.0 °F 71% 30.20 in 10.0 mi NNW 15.0 mph 23.0 mph N/A   Overcast
1:54 PM 44.1 °F 37.4 °F 34.0 °F 68% 30.20 in 10.0 mi North 13.8 mph 23.0 mph N/A   Overcast
2:54 PM 46.0 °F 40.2 °F 35.1 °F 66% 30.20 in 10.0 mi NNW 12.7 mph 19.6 mph N/A   Mostly Cloudy
3:00 PM 44.6 °F 38.8 °F 33.8 °F 66% 30.19 in 10.0 mi NW 11.5 mph 20.7 mph N/A   Mostly Cloudy
3:54 PM 48.0 °F - 34.0 °F 58% 30.21 in 10.0 mi NNW 12.7 mph 20.7 mph N/A   Mostly Cloudy
4:54 PM 50.0 °F - 35.1 °F 57% 30.21 in 10.0 mi NNW 12.7 mph 19.6 mph N/A   Mostly Cloudy
5:54 PM 50.0 °F - 34.0 °F 54% 30.21 in 10.0 mi NW 13.8 mph - N/A   Mostly Cloudy
6:54 PM 50.0 °F - 34.0 °F 54% 30.21 in 10.0 mi WNW 15.0 mph - N/A   Mostly Cloudy
7:54 PM 48.9 °F - 33.1 °F 54% 30.22 in 10.0 mi WNW 12.7 mph - N/A   Scattered Clouds
8:54 PM 46.9 °F - 33.1 °F 59% 30.21 in 10.0 mi NW 9.2 mph - N/A   Partly Cloudy
9:54 PM 45.0 °F 40.1 °F 35.1 °F 68% 30.22 in 10.0 mi NW 9.2 mph - N/A   Partly Cloudy
10:54 PM 45.0 °F 38.9 °F 34.0 °F 65% 30.25 in 10.0 mi NW 12.7 mph - N/A   Mostly Cloudy
11:54 PM 45.0 °F 39.3 °F 33.1 °F 63% 30.25 in 10.0 mi NNW 11.5 mph - N/A   Mostly Cloudy